CZ-6A DEB, 54638

Orbit data source: Space-Track

CZ-6A DEB, 54638 is space debris in SSO originally from a launch on Fri, 11 Nov 2022 UTC launched from the Taiyaun Space Center, China (TSC). Debris objects in space refer to the collection of defunct objects orbiting the Earth. Examples of debris include non-operational satellites, rocket bodies, and fragments generated from explosions, collisions, or faulty payload assembly.

Loading next visibility...
Identifier
54638, 2022-151PQ
Orbit
SSO
Country
Flag of CNCN / PRC
Related business
Manufacturer
SAST
Mission
Spacecraft
Bus & Motor
Unknown
Mass
Unknown
Launch date (UTC)
2022-11-11 (4 years ago)
Launch vehicle
Unknown
Launch site
Taiyaun Space Center, China (TSC)
Object type
Payload
Rocket body
Debris
Shape & HBR
Unknown shape, 0.1 m
Radar Cross Section
Medium (>0.1 m² and <1 m²)

Expand to show TLE details & history
Last TLE update: 8 hours ago

TLE from 8 hours ago
0 CZ-6A DEB
1 54638U 22151PQ  26237.68812174  .00019605  00000-0  20010-2 0  9990
2 54638  98.6294 323.8312 0051341  21.2793 339.0542 14.89684898200986
Epoch: 2026-08-25T16:30Z
TLE epoch observation values (Epoch: 2026-08-25T16:30:53.718Z)
Latitude
0.00006°
Longitude
102.15548°
Altitude
568.494 km
Speed
7.595 km/s
True Right ascension
21h 35m 19s
True Declination
0° 00' 00"
Sunlit
Object was in full shadow at epoch
Visualization orbit readout
Latitude
Unknown
Longitude
Unknown
Altitude
Unknown
Speed
Unknown
Apparent Right ascension
Unknown
Apparent Declination
Unknown
Sunlit
N/A
Visualization observer readout
Local Sidereal Time
15:55:02
Azimuth
Unknown
Elevation
Unknown
Doppler factor
Unknown
Orbital elements
Apogee altitude
631.787 km
Perigee altitude
560.176 km
Semi-major axis
6,974.118 km
Eccentricity
0.00513
Inclination
98.6294°
RAAN
323.8312°
Arg. of periapsis
21.2793°
True anomaly
338.84262°
Mean anomaly
339.0542°
Eccentric anomaly
338.94854°
Mean motion
3.72657 °/min
Orbital period
96.6 mins
BSTAR
0.002001
Loading maneuver chart data...
Computing Atmospheric mass density...
Loading historical data...
Loading historical data...
Loading historical data...
Loading historical data...
Loading historical data...
Loading historical data...
Loading historical data...

Documentation

Showing up to 5 results
|